VA3XLC Weather Reports


time (UTC)temp
C
wind
direction
speed
KPH
gust
KPH
rain 1hr
cm
rain 24hr
cm
rain mn
cm
humidity
%
barometer
mb
20260904092718 18 0 0.0 0.0 0.00 0.00 0.00 98 983.1
20260904092218 18 0 0.0 0.0 0.00 0.00 0.00 98 983.0
20260904091718 18 0 0.0 0.0 0.00 0.00 0.00 98 982.9
20260904091218 18 40 1.6 3.2 0.00 0.00 0.00 98 982.9
20260904090156 18 59 1.6 3.2 0.00 0.00 0.00 98 983.0
20260904085135 18 0 0.0 0.0 0.00 0.00 0.00 98 982.9
20260904084634 18 0 0.0 0.0 0.00 0.00 0.00 98 982.9
20260904084134 18 24 1.6 3.2 0.00 0.00 0.00 97 982.9
20260904083634 18 0 0.0 0.0 0.00 0.00 0.00 97 982.7
20260904083134 18 0 0.0 0.0 0.00 0.00 0.00 97 982.6
20260904082634 18 0 0.0 0.0 0.00 0.00 0.00 97 982.6
20260904082132 18 0 0.0 0.0 0.00 0.00 0.00 97 982.6
20260904081632 18 0 0.0 0.0 0.00 0.00 0.00 97 982.7
20260904081132 18 0 0.0 0.0 0.00 0.00 0.00 97 982.7
20260904080632 18 0 0.0 0.0 0.00 0.00 0.00 97 982.8
20260904075610 18 25 1.6 1.6 0.00 0.00 0.00 97 982.9
20260904075110 18 345 1.6 4.8 0.00 0.00 0.00 97 982.9
20260904074610 18 12 1.6 3.2 0.00 0.00 0.00 97 983.0
20260904074110 18 58 3.2 4.8 0.00 0.00 0.00 97 983.0
20260904073609 18 236 1.6 4.8 0.00 0.00 0.00 97 983.0
20260904073109 18 45 4.8 4.8 0.00 0.00 0.00 97 983.2
20260904072609 18 351 3.2 6.4 0.00 0.00 0.00 97 983.3
20260904072109 18 359 1.6 4.8 0.00 0.00 0.00 96 983.3
20260904071608 18 357 3.2 4.8 0.00 0.00 0.00 96 983.3
20260904071108 18 346 1.6 3.2 0.00 0.00 0.00 96 983.4
20260904070608 18 352 4.8 8.0 0.00 0.00 0.00 96 983.5
20260904070108 18 0 0.0 0.0 0.00 0.00 0.00 96 983.5
20260904065046 19 0 0.0 0.0 0.00 0.00 0.00 96 983.4
20260904064546 19 332 4.8 8.0 0.00 0.00 0.00 96 983.4
20260904064046 19 343 3.2 8.0 0.00 0.00 0.00 96 983.3
20260904063025 19 340 1.6 4.8 0.00 0.00 0.00 96 983.2
20260904062524 19 4 1.6 3.2 0.00 0.00 0.00 97 983.2
20260904062024 19 332 1.6 3.2 0.00 0.00 0.00 97 983.3
20260904061523 19 13 3.2 4.8 0.00 0.00 0.00 97 983.4
20260904061023 19 0 0.0 0.0 0.00 0.00 0.00 97 983.3
20260904060523 19 0 0.0 0.0 0.00 0.00 0.00 97 983.3
20260904060023 19 336 3.2 3.2 0.00 0.00 0.00 97 983.3
20260904055522 19 354 1.6 4.8 0.00 0.00 0.00 97 983.3
20260904055022 19 343 0.0 1.6 0.00 0.00 0.00 97 983.5
20260904054522 19 324 3.2 8.0 0.00 0.00 0.00 97 983.6
20260904054022 19 314 4.8 8.0 0.00 0.00 0.00 97 983.5
20260904053522 19 326 3.2 4.8 0.00 0.00 0.00 97 983.4
20260904052500 19 358 6.4 9.7 0.00 0.00 0.00 97 983.5
20260904051959 20 342 4.8 9.7 0.00 0.00 0.00 97 983.5
20260904050938 20 343 3.2 6.4 0.00 0.00 0.00 97 983.4
20260904050438 20 353 1.6 4.8 0.00 0.00 0.00 97 983.4
20260904045937 20 322 1.6 4.8 0.00 0.00 0.00 97 983.4
20260904045437 20 318 3.2 4.8 0.00 0.00 0.00 97 983.4
20260904044937 20 323 1.6 3.2 0.00 0.00 0.00 97 983.3
20260904044437 20 324 1.6 3.2 0.00 0.00 0.00 97 983.3
20260904043936 20 330 1.6 3.2 0.00 0.00 0.00 97 983.3
20260904043436 20 0 0.0 0.0 0.00 0.00 0.00 97 983.3
20260904041853 20 0 0.0 0.0 0.00 0.00 0.00 97 983.2
20260904041353 20 335 3.2 4.8 0.00 0.00 0.00 97 983.1
20260904040852 20 320 3.2 6.4 0.00 0.00 0.00 97 983.0
20260904034227 20 217 1.6 3.2 0.00 0.00 0.00 97 983.0
20260904033727 20 353 1.6 4.8 0.00 0.00 0.00 97 983.0
20260904033227 20 12 3.2 4.8 0.00 0.00 0.00 97 983.0
20260904032727 20 12 3.2 4.8 0.00 0.00 0.00 97 982.9
20260904031705 20 349 0.0 1.6 0.00 0.00 0.00 97 982.9
20260904031204 20 283 1.6 3.2 0.00 0.00 0.00 97 982.9
20260904030143 20 346 4.8 6.4 0.00 0.00 0.00 97 982.8
20260904025121 20 355 1.6 3.2 0.00 0.00 0.00 97 982.6
20260904024621 20 330 3.2 4.8 0.00 0.00 0.00 97 982.5
20260904023559 20 257 3.2 4.8 0.00 0.00 0.00 97 982.5
20260904023059 20 247 1.6 4.8 0.00 0.00 0.00 97 982.6
20260904022038 20 292 1.6 3.2 0.00 0.00 0.00 97 982.6
20260904021537 20 288 3.2 6.4 0.00 0.00 0.00 97 982.7
20260904020516 20 258 3.2 4.8 0.00 0.00 0.00 97 982.7
20260904020016 20 280 3.2 4.8 0.00 0.00 0.00 97 982.7
20260904015515 20 266 4.8 6.4 0.00 0.00 0.00 97 982.7
20260904015014 20 257 3.2 4.8 0.00 0.00 0.00 97 982.5
20260904014513 20 259 4.8 6.4 0.00 0.00 0.00 97 982.5
20260904014013 20 269 1.6 3.2 0.00 0.00 0.00 97 982.4
20260904013513 20 275 4.8 8.0 0.00 0.00 0.00 97 982.4
20260904013013 20 297 1.6 3.2 0.00 0.00 0.00 97 982.3
20260904012512 20 261 3.2 4.8 0.00 0.00 0.00 97 982.2
20260904012012 20 249 1.6 4.8 0.00 0.00 0.00 97 982.2
20260904011511 20 238 3.2 4.8 0.00 0.00 0.00 97 982.2
20260904011010 20 275 3.2 4.8 0.00 0.00 0.00 97 982.2
20260904010510 20 289 3.2 4.8 0.00 0.00 0.00 97 982.1
20260904005448 21 258 3.2 4.8 0.00 0.00 0.00 97 982.0
20260904004948 21 302 3.2 4.8 0.00 0.00 0.00 97 982.0
20260904004448 21 285 3.2 4.8 0.00 0.00 0.00 97 982.0
20260904003426 21 282 1.6 1.6 0.00 0.00 0.00 97 981.8
20260904002926 21 264 4.8 6.4 0.00 0.00 0.00 96 981.8
20260904002426 21 291 4.8 6.4 0.00 0.00 0.00 96 981.9
20260904001926 21 289 4.8 6.4 0.00 0.00 0.00 97 981.8
20260904001426 21 279 4.8 4.8 0.00 0.00 0.00 97 981.7
20260904000925 21 252 3.2 4.8 0.00 0.00 0.00 97 981.6
20260904000425 21 325 3.2 6.4 0.00 0.00 0.00 97 981.6
20260903235925 21 0 0.0 0.0 0.00 0.00 0.00 96 981.4
20260903235425 21 0 0.0 0.0 0.00 0.00 0.00 96 981.3
20260903234924 21 0 0.0 0.0 0.00 0.00 0.00 96 981.4
20260903234424 21 299 1.6 3.2 0.00 0.00 0.00 96 981.4
20260903233923 21 336 3.2 4.8 0.00 0.00 0.00 96 981.6
20260903233423 21 345 4.8 9.7 0.00 0.00 0.00 96 981.8
20260903232923 21 355 1.6 4.8 0.00 0.00 0.00 96 981.7
20260903232422 21 326 3.2 8.0 0.00 0.00 0.00 96 981.4
20260903231922 21 269 3.2 6.4 0.00 0.00 0.00 96 981.0
20260903231422 21 272 1.6 3.2 0.00 0.00 0.00 96 980.8
20260903230400 21 174 3.2 4.8 0.00 0.00 0.00 96 980.6
20260903225900 21 0 0.0 0.0 0.00 0.00 0.00 96 980.6
20260903224317 21 323 3.2 4.8 0.00 0.00 0.00 96 981.0
20260903223817 21 340 4.8 6.4 0.00 0.00 0.00 96 981.1
20260903223317 21 332 1.6 4.8 0.00 0.00 0.00 95 980.7
20260903222816 21 278 3.2 6.4 0.00 0.00 0.00 95 980.6
20260903222316 21 272 4.8 9.7 0.00 0.00 0.00 95 980.5
20260903221816 21 240 3.2 6.4 0.00 0.00 0.00 95 980.7
20260903221315 22 250 1.6 6.4 0.00 0.00 0.00 95 980.6
20260903220815 22 245 3.2 6.4 0.00 0.00 0.00 95 980.8
20260903220315 22 261 3.2 6.4 0.00 0.00 0.00 95 981.0
20260903215814 22 314 3.2 6.4 0.00 0.00 0.00 95 981.2
20260903214753 22 306 6.4 11.3 0.00 0.00 0.00 95 981.2
20260903214253 22 17 1.6 1.6 0.00 0.00 0.00 95 981.2
20260903213753 22 13 3.2 8.0 0.00 0.00 0.00 95 981.4
20260903212731 23 340 4.8 8.0 0.00 0.00 0.00 95 981.9
20260903212231 23 340 3.2 6.4 0.00 0.00 0.00 95 982.1
20260903211731 23 347 4.8 11.3 0.00 0.00 0.00 95 982.0
20260903210709 23 321 8.0 11.3 0.00 0.00 0.00 95 982.2
20260903205647 23 293 8.0 12.9 0.00 0.00 0.00 95 982.4
20260903205147 24 322 9.7 12.9 0.00 0.00 0.00 95 982.2
20260903204647 24 337 6.4 12.9 0.00 0.00 0.00 94 981.8
20260903204147 25 323 3.2 6.4 0.00 0.00 0.00 93 981.8
20260903203646 25 305 4.8 6.4 0.00 0.00 0.00 92 981.7
20260903203146 25 306 4.8 6.4 0.00 0.00 0.00 90 981.6
20260903202646 25 328 3.2 6.4 0.00 0.00 0.00 89 981.3
20260903201625 25 263 4.8 8.0 0.00 0.00 0.00 88 981.1
20260903201124 25 233 1.6 3.2 0.00 0.00 0.00 88 981.0
20260903200624 25 0 0.0 0.0 0.00 0.00 0.00 87 980.9
20260903200124 25 256 1.6 3.2 0.00 0.00 0.00 87 980.8
20260903195624 25 320 1.6 3.2 0.00 0.00 0.00 87 980.8
20260903195123 25 308 1.6 3.2 0.00 0.00 0.00 87 980.8
20260903194623 26 321 3.2 4.8 0.00 0.00 0.00 87 980.7
20260903194123 26 58 1.6 4.8 0.00 0.00 0.00 87 980.7
20260903193101 26 324 1.6 6.4 0.00 0.00 0.00 86 980.7
20260903192601 26 336 3.2 6.4 0.00 0.00 0.00 85 980.8
20260903192101 26 250 1.6 4.8 0.00 0.00 0.00 86 980.8
20260903191600 26 320 3.2 4.8 0.00 0.00 0.00 85 980.7
20260903191100 26 329 6.4 9.7 0.00 0.00 0.00 85 980.8
20260903190600 26 331 4.8 8.0 0.00 0.00 0.00 84 980.7
20260903190100 26 72 3.2 6.4 0.00 0.00 0.00 84 980.7
20260903185600 26 350 8.0 14.5 0.00 0.00 0.00 82 980.9
20260903185059 26 324 4.8 6.4 0.00 0.00 0.00 82 981.0
20260903184559 26 350 6.4 12.9 0.00 0.00 0.00 82 980.9
20260903183538 26 295 6.4 8.0 0.00 0.00 0.00 81 981.2
20260903182516 27 315 4.8 8.0 0.00 0.00 0.00 80 981.6
20260903182016 27 316 8.0 11.3 0.00 0.00 0.00 80 981.7
20260903181516 27 273 8.0 12.9 0.00 0.00 0.00 79 981.6
20260903181016 27 293 6.4 9.7 0.00 0.00 0.00 79 981.6
20260903180515 27 290 8.0 12.9 0.00 0.00 0.00 78 981.6
20260903180015 27 275 8.0 11.3 0.00 0.00 0.00 79 981.7
20260903175515 27 312 4.8 8.0 0.00 0.00 0.00 78 981.7
20260903175015 27 305 9.7 14.5 0.00 0.00 0.00 78 981.7
20260903174515 27 306 8.0 14.5 0.00 0.00 0.00 78 981.7
20260903173453 26 321 8.0 12.9 0.00 0.00 0.00 78 981.9
20260903172432 27 302 11.3 16.1 0.00 0.00 0.00 78 981.9
20260903171932 26 308 8.0 11.3 0.00 0.00 0.00 78 981.9
20260903171431 26 296 8.0 9.7 0.00 0.00 0.00 77 981.9
20260903170930 26 290 9.7 12.9 0.00 0.00 0.00 77 981.8
20260903170430 26 284 6.4 8.0 0.00 0.00 0.00 77 981.6
20260903165930 26 329 6.4 9.7 0.00 0.00 0.00 77 981.8
20260903165429 26 308 11.3 19.3 0.00 0.00 0.00 78 981.8
20260903164928 26 262 6.4 9.7 0.00 0.00 0.00 80 982.0
20260903164428 26 275 6.4 9.7 0.00 0.00 0.00 81 982.2
20260903163928 26 295 6.4 9.7 0.00 0.00 0.00 82 982.1
20260903162345 26 294 8.0 14.5 0.00 0.00 0.00 78 982.1
20260903161845 26 282 4.8 6.4 0.00 0.00 0.00 79 982.2
20260903161344 26 267 8.0 9.7 0.00 0.00 0.00 80 982.2
20260903160844 26 275 8.0 12.9 0.00 0.00 0.00 79 982.2
20260903160343 26 287 8.0 9.7 0.00 0.00 0.00 78 982.2
20260903155843 26 271 3.2 4.8 0.00 0.00 0.00 77 982.0
20260903155343 26 70 4.8 8.0 0.00 0.00 0.00 78 981.9
20260903154322 26 348 3.2 6.4 0.00 0.00 0.00 79 982.0
20260903153300 26 206 1.6 3.2 0.00 0.00 0.00 79 982.0
20260903151717 25 192 4.8 11.3 0.00 0.00 0.00 85 982.0
20260903151217 25 264 1.6 3.2 0.00 0.00 0.00 84 982.1
20260903150717 25 165 4.8 9.7 0.00 0.00 0.00 86 982.2
20260903145655 24 100 1.6 3.2 0.00 0.00 0.00 88 982.2
20260903145155 23 247 1.6 4.8 0.00 0.00 0.00 88 982.3
20260903144654 23 241 3.2 4.8 0.00 0.00 0.00 90 982.3
20260903143633 23 163 1.6 3.2 0.00 0.00 0.00 92 982.2
20260903143132 23 236 1.6 3.2 0.00 0.00 0.00 93 982.2
20260903142110 22 284 1.6 1.6 0.00 0.00 0.00 97 982.2
20260903141610 21 163 1.6 4.8 0.00 0.00 0.00 97 982.2
20260903141110 21 221 1.6 3.2 0.00 0.00 0.00 97 982.3
20260903140610 21 215 1.6 3.2 0.00 0.00 0.00 97 982.2
20260903135547 20 245 3.2 4.8 0.00 0.00 0.00 98 982.3
20260903135046 21 246 3.2 4.8 0.00 0.00 0.00 98 982.2
20260903134546 21 169 3.2 6.4 0.00 0.00 0.00 99 982.2
20260903134046 20 280 4.8 6.4 0.00 0.00 0.00 99 982.3
20260903133024 20 294 6.4 9.7 0.00 0.00 0.00 99 982.4
20260903132524 20 309 11.3 17.7 0.00 0.00 0.00 99 982.5
20260903132024 20 294 3.2 4.8 0.00 0.00 0.00 99 982.5
20260903131524 20 309 6.4 11.3 0.00 0.00 0.00 99 982.5
20260903131023 20 261 1.6 3.2 0.00 0.00 0.00 99 982.6
20260903130523 20 328 3.2 4.8 0.00 0.00 0.00 99 982.6
20260903130023 20 307 4.8 6.4 0.00 0.00 0.00 99 982.6
20260903125523 20 327 3.2 4.8 0.00 0.00 0.00 99 982.7
20260903125022 20 7 3.2 3.2 0.00 0.00 0.00 99 982.6
20260903124522 20 323 4.8 4.8 0.00 0.00 0.00 99 982.6
20260903124022 20 340 3.2 3.2 0.00 0.00 0.00 99 982.6
20260903123522 20 317 3.2 4.8 0.00 0.00 0.00 99 982.7
20260903123021 20 347 4.8 4.8 0.00 0.00 0.00 99 982.6
20260903122520 20 47 3.2 3.2 0.00 0.00 0.00 99 982.5
20260903121458 20 334 3.2 4.8 0.00 0.00 0.00 99 982.6
20260903120958 20 136 4.8 8.0 0.00 0.00 0.00 99 982.5
20260903120458 20 24 3.2 3.2 0.00 0.00 0.00 99 982.5
20260903115958 20 346 3.2 3.2 0.00 0.00 0.00 99 982.5
20260903115457 20 317 3.2 4.8 0.00 0.00 0.00 99 982.4
20260903114957 20 260 3.2 4.8 0.00 0.00 0.00 99 982.4
20260903114457 20 348 3.2 3.2 0.00 0.00 0.00 99 982.4
20260903113957 20 353 4.8 4.8 0.00 0.00 0.00 99 982.3
20260903112936 20 337 3.2 3.2 0.00 0.00 0.00 99 982.3
20260903112435 20 336 3.2 3.2 0.00 0.00 0.00 99 982.2
20260903111935 20 337 3.2 3.2 0.00 0.00 0.00 99 982.2
20260903110914 20 340 3.2 3.2 0.00 0.00 0.00 99 982.3
20260903110413 19 337 3.2 3.2 0.00 0.00 0.00 99 982.1
20260903105913 19 354 4.8 4.8 0.00 0.00 0.00 99 982.0
20260903105413 19 345 3.2 3.2 0.00 0.00 0.00 99 982.0
20260903104912 19 352 3.2 4.8 0.00 0.00 0.00 98 982.0
20260903104411 19 309 3.2 4.8 0.00 0.00 0.00 98 982.0
20260903103350 19 333 3.2 3.2 0.00 0.00 0.00 98 982.0
20260903102850 19 342 3.2 4.8 0.00 0.00 0.00 98 982.0
20260903102350 19 339 3.2 3.2 0.00 0.00 0.00 98 982.0
20260903101328 19 352 3.2 4.8 0.00 0.00 0.00 98 982.0
20260903100828 19 339 3.2 3.2 0.00 0.00 0.00 98 982.0
20260903100328 19 342 3.2 3.2 0.00 0.00 0.00 98 981.9
20260903095828 19 335 3.2 3.2 0.00 0.00 0.00 98 981.8
20260903095327 19 151 3.2 6.4 0.00 0.00 0.00 98 981.8
20260903094827 19 332 1.6 4.8 0.00 0.00 0.00 98 981.7
20260903094327 19 343 3.2 3.2 0.00 0.00 0.00 98 981.7
20260903093827 19 331 1.6 1.6 0.00 0.00 0.00 98 981.5
20260903093327 19 340 3.2 4.8 0.00 0.00 0.00 98 981.5